一网星座-0523星 (ONEWEB-0523 )

导读

ONEWEB-0523是英国OneWeb星座的通信卫星,于2022年10月22日发射入轨。OneWeb星座由英国主导建设,旨在打造低轨全球互联网通信系统,卫星部署在1200公里近地轨道,相比高轨通信拥有更低时延。 它主要为全球范围提供宽带互联网接入服务,后续第二代OneWeb卫星还规划增加定位导航授时功能,可和GPS、伽利略等系统竞争,同时该卫星技术也存在被开发用于军事通信、导航的潜在价值。

基本信息
目录编号:
54141
目录名称:
ONEWEB-0523
国际标识:
2022-138AE
轨道中心:
EARTH
卫星名称:
一网星座-0523星
卫星全名:
一网星座-0523星 (ONEWEB-0523 )
卫星状态:
在轨 (已飞行1424 天)
发射日期:
2022-10-22 UTC
国别 :
英国 (GB)
星等 :
--
该卫星已列入 空间交会检测服务 Space Conjunction Data Service (SCDS) ,当前飞行风险评估等级: 无高风险
轨道信息
数据来源 国际轨道数据 AOE轨道数据
星历时间 2026-09-15T06:51:48+0800
1天前
查看轨道信息
2026-09-15T10:00:00+0800
21小时前
查看轨道信息
半长轴 7559.907km 7559.893km
偏心率 0.0001751 0.0002475
轨道倾角 87.914° 87.915°
近地点辐角 112.671° 101.698°
升交点赤经 256.535° 256.510°
平近点角 247.461° 159.537°
近地点 1180.446km 1179.884km
远地点 1183.094km 1183.628km
周期 109.027分钟 109.027分钟
每日圈数 13.207728 13.207764
详细信息
平衡模式:
三轴稳定
覆盖范围:
全球
运营商:
一网卫星公司
运营商所在国:
英国
制造商(研发单位):
一网卫星公司
制造商所在国:
英国
使用方式:
暂无
卫星简介
OneWeb卫星网络由648颗重约125公斤的微型卫星组成,运行在1200公里的轨道上。 每颗卫星都能够提供至少每秒8千兆位的吞吐量,以使用其高吞吐量的Ku频段有效载荷为家庭和移动平台提供互联网接入。该卫星仍在工作。
2D轨道图
3D轨道图
轨道高度分析图
轨道倾角分析图
轨道综合分析图
查看轨道综合分析图
与全量物体交会距离演化趋势 订阅飞行安全评估服务
与全量物体交会风险概率演化趋势 订阅飞行安全评估服务